Regional Weather Roundup
Issued by NWS

Home | Current Version | Previous Version | Text Only | Print | Product List | Glossary On
Versions: 1 2 3 4 5 6 7 8 9 10 11 12 13 14 15 16 17 18 19 20 21 22 23 24 25 26 27 28 29 30 31 32 33 34 35 36 37 38 39 40 41 42 43 44 45 46 47 48 49 50
000
ASUS45 KABQ 201610
RWRNM
NEW MEXICO REGIONAL WEATHER ROUNDUP
NATIONAL WEATHER SERVICE ALBUQUERQUE NM
900 AM MST MON FEB 20 2017

NOTE: "FAIR" MEANS FEW OR NO CLOUDS BELOW 12,000 FEET AGL WITH NO
       SIGNIFICANT WEATHER OR OBSTRUCTIONS TO VISION.

      THIS PRODUCT IS RELEASED AS TWO VERSIONS.  ONE VERSION NEAR
      THE TOP OF THE HOUR CONTAINING PRELIMINARY DATA FROM ALBUQUERQUE
      AND OTHER STATIONS.  A FINAL VERSION WITH ADDITIONAL DATA IS
      ISSUED ABOUT 10 MINUTES AFTER THE HOUR.

NMZ501-503-504-510>518-201700-
NORTHWEST PLATEAU/NORTHCENTRAL MOUNTAINS

CITY           SKY/WX    TMP DP  RH WIND       PRES   REMARKS
FARMINGTON     FAIR      40  34  79 SW3       30.21R
LOS ALAMOS     FAIR      37  31  79 CALM      30.19R
SANTA FE       FAIR      43  31  62 N10       30.18R
TAOS           FAIR      34  23  64 CALM      30.19R
ANGEL FIRE     FAIR      33  23  65 W12       30.16R WCI  25

$$
NMZ402-403-502-505>509-201700-
WESTCENTRAL MOUNTAINS/SOUTHWEST MOUNTAINS

CITY           SKY/WX    TMP DP  RH WIND       PRES   REMARKS
GALLUP         CLOUDY    37  31  78 W9        30.26R WCI  30
GRANTS         FAIR      40  31  71 N8        30.26R WCI  34
SILVER CITY    FAIR      44  35  70 W14       30.23R

$$
NMZ407-409-411-412-201700-
SOUTHERN DESERTS

CITY           SKY/WX    TMP DP  RH WIND       PRES   REMARKS
DEMING         FAIR      47  39  74 W9        30.23R
LAS CRUCES     FAIR      45  37  74 W13       30.21S
HOLLOMAN AFB   FAIR      50  32  49 N8        30.22R
ALAMOGORDO     FAIR      52  30  43 N15       30.18R
T OR C         FAIR      50  30  46 NE3       30.19R

$$
NMZ519>523-201700-
CENTRAL VALLEYS/CENTRAL HIGHLANDS

CITY           SKY/WX    TMP DP  RH WIND       PRES   REMARKS
ALBUQUERQUE    FAIR      46  33  60 W3        30.22R
DOUBLE EAGLE   MOSUNNY   45  32  61 NW13      30.22R
MORIARTY ARPT  FAIR      47  31  53 NW17      30.18R
CLINES CORNERS FAIR      38  31  76 NW24G32   30.16R WCI  27
BELEN          FAIR      47  31  52 W14       30.22R
SOCORRO        FAIR      50  29  44 NW13G22   30.20R

$$
NMZ524>526-539-540-201700-
SOUTHCENTRAL MOUNTAINS

CITY           SKY/WX    TMP DP  RH WIND       PRES   REMARKS
RUIDOSO        FAIR      39  27  60 NW24G32   30.18R WCI  28

$$
NMZ527>531-201700-
NORTHEAST HIGHLANDS/NORTHEAST PLAINS

CITY           SKY/WX    TMP DP  RH WIND       PRES   REMARKS
LAS VEGAS      FAIR      46  16  30 NW26G33   30.09R
RATON          FAIR      45  20  36 VRB3      30.05R
CLAYTON        FAIR      54  32  43 NW20      29.99R

$$
NMZ532>537-201700-
EASTCENTRAL PLAINS

CITY           SKY/WX    TMP DP  RH WIND       PRES   REMARKS
TUCUMCARI      FAIR      54  31  41 N13       30.02R
CANNON AFB     FAIR      54  27  36 N20G25    30.01R
CLOVIS AIRPORT FAIR      52  30  43 N20       30.00R

$$
NMZ028-029-538-201700-
SOUTHEAST PLAINS

CITY           SKY/WX    TMP DP  RH WIND       PRES   REMARKS
ROSWELL        FAIR      59  29  31 NW20G33     N/A
ARTESIA        FAIR      55  34  44 W15       30.07R
CARLSBAD       FAIR      58  34  40 W23       30.03R
HOBBS          SUNNY     54  32  43 W25       30.03R


$$




USA.gov is the U.S. government's official web portal to all federal, state and local government web resources and services.